Location: Unspecified
(0.0000°N, 0.0000°E)
Time: 21:29:01
(UTC+02:00)

Centaur D-1AR AC-41 - Visible Passes

Search period start: 22 May 2017 00:00
Search period end: 01 June 2017 00:00
Orbit: 572 x 36268 km, 21.2° (Epoch: 21 May)

Date Brightness Start Highest point End Pass type
(mag) Time Alt. Az. Time Alt. Az. Time Alt. Az.
22 May 7.4 00:50:35 10° WSW 02:05:00 75° NW 11:03:42 10° E visible
22 May 7.5 22:16:34 10° WSW 22:35:41 75° SSE 08:30:03 10° E visible
23 May 6.3 19:46:17 10° SSW 19:54:14 36° SE 05:47:26 10° ENE visible
25 May 10.6 00:28:18 10° ENE 01:23:05 12° ENE 02:05:15 10° ENE visible
25 May 9.6 05:31:22 10° W 06:23:34 14° WNW 07:43:25 10° WNW visible
26 May 6.3 02:09:49 10° W 03:42:38 52° WNW 12:16:53 10° ESE visible
26 May 7.9 23:30:50 10° WSW 00:09:40 86° NNW 09:45:30 10° E visible
27 May 6.8 20:58:49 10° SW 21:11:23 61° SSE 07:09:17 10° E visible
28 May 10.1 22:22:27 10° ENE 02:35:07 31° ENE 04:16:55 10° ENE visible
30 May 9.2 03:38:25 10° W 05:04:30 30° WNW 08:48:03 10° WNW visible
31 May 7.1 00:47:14 10° WSW 02:09:36 68° NW 10:59:23 10° ESE visible
